ford-trucks.com alexa rank chart, ford-trucks.com alexa rank daily changes

ford-trucks.com alexa rank chart, ford-trucks.com alexa rank daily changes

ford-trucks.com
Actual rank:
36 106

RANK HISTORY

Date Rank Diff
2016/12/09 36 106 -246
2016/12/08 36 352 +518
2016/12/07 35 834 +360
2016/12/06 35 474 +182
2016/12/05 35 292 -124
2016/12/04 35 416 +68
2016/12/02 35 348 -620
2016/12/01 35 968 +495
2016/11/30 35 473 +94
2016/11/29 35 379 +286
2016/11/28 35 093 -11
2016/11/27 35 104 +374
2016/11/26 34 730 +17
2016/11/25 34 713 +288
2016/11/24 34 425 -354
2016/11/23 34 779 -920
2016/11/19 35 699 +246
2016/11/18 35 453 +363
2016/11/17 35 090 +414
2016/11/16 34 676 +154
2016/11/15 34 522 +151
2016/11/14 34 371 -47
2016/11/13 34 418 -119
2016/11/12 34 537 +220
2016/11/11 34 317 +440
2016/11/10 33 877 -108
2016/11/09 33 985 +147
2016/11/08 33 838 -441
2016/11/07 34 279 -237
2016/11/06 34 516 +22
2016/11/05 34 494 -139
2016/11/04 34 633 +943
2016/11/03 33 690 -261
2016/11/02 33 951 +138
2016/11/01 33 813 -128
2016/10/31 33 941 -450
2016/10/30 34 391 +110
2016/10/29 34 281 -693
2016/10/28 34 974 -233
2016/10/27 35 207 -554
2016/10/26 35 761 -410
2016/10/25 36 171 -98
2016/10/24 36 269 +83
2016/10/23 36 186 +801
2016/10/22 35 385 -41
2016/10/21 35 426 -48
2016/10/20 35 474 -675
2016/10/19 36 149 +52
2016/10/18 36 097 -183
2016/10/17 36 280 -275
2016/10/16 36 555 -129
2016/10/15 36 684 +5 882
2016/10/14 30 802 +295
2016/10/13 30 507 +364
2016/10/12 30 143 +116
2016/10/11 30 027 +496
2016/10/10 29 531

WIDGET FOR YOUR SITE

DOMAINS WITH THE NEAREST RANK

Domain Rank
eversales.space 36 101
tanteifile.com 36 102
ncclick.co.kr 36 103
tf2outpost.com 36 104
todocvcd.com 36 105
ford-trucks.com 36 106
publipt.com 36 107
cadence.com 36 108
docer.com 36 109
fitforfun.de 36 110
hopto.org 36 111

DOMAINS WITH THE NEAREST RANK BY TLD .com

Domain Rank
akilanews.com 36 096
animecewekindo.com 36 098
tanteifile.com 36 102
tf2outpost.com 36 104
todocvcd.com 36 105
ford-trucks.com 36 106
publipt.com 36 107
cadence.com 36 108
docer.com 36 109
3533.com 36 113
adbdriver.com 36 114